MGMM

Mundo Maya International Airport

Airport
ICAO code
MGMM
IATA Code
FRS
Summary
ICAO Region
CARSAM
ICAO Territory
Location

Santa Elena, Peten Department

Serving
Flores
Elevation
387 ft
Coordinates
16° 54' 53" N , 89° 52' 38" W
KCC
Metar
Observation
MGMM 070000Z 06004KT 9999 FEW020 27/23 Q1017 A3003
Station
Melchor de Mencos Airport
Date/Time
2022-12-07 00:00:00
Wind direction
60°
Wind speed
04 kts
Lowest cloud amount
few clouds
Temperature
27°C
Dew point
23°C
Humidity
78%
QNH
1017 hPa
Weather condition
n/a

Mundo Maya International Airport (Spanish: Aeropuerto Internacional Mundo Maya), formerly Flores International Airport, is an international airport located in the suburb of Santa Elena, in the city of Flores, Guatemala.

Climatology

Tropical rainforest climate (Köppen climate classification Af)

Airport map

Aerial View

SKYbrary Partners:

Safety knowledge contributed by: